$Date,$Time,DM0201B,DM0203B,DM0205B,DM0207B,DM0209B
04/08/99,00:00:01,32,204,-28,33,959
04/08/99,00:05:01,18,204,-28,31,959
04/08/99,00:10:01,8,204,-28,37,959
04/08/99,00:15:01,18,204,-28,35,959
04/08/99,00:20:01,18,204,-28,35,959
04/08/99,00:25:01,18,204,-28,35,959
04/08/99,00:30:01,8,204,-28,41,959
04/08/99,00:35:01,8,204,-28,38,959
04/08/99,00:40:01,8,204,-28,44,959
04/08/99,00:45:01,8,204,-28,40,959
04/08/99,00:50:01,8,204,-28,40,959
04/08/99,00:55:01,8,204,-28,38,959
04/08/99,01:00:01,8,204,-28,38,959
04/08/99,01:05:01,8,204,-28,40,959
04/08/99,01:10:01,8,204,-28,48,959
04/08/99,01:15:01,8,204,-28,50,959
04/08/99,01:20:01,8,194,-28,56,959
04/08/99,01:25:01,8,194,-26,54,959
04/08/99,01:30:01,8,194,-26,45,959
04/08/99,01:35:01,8,182,-26,41,959
04/08/99,01:40:01,8,182,-26,43,959
04/08/99,01:45:01,8,182,-26,45,959
04/08/99,01:50:01,8,182,-26,49,959
04/08/99,01:55:01,8,102,-26,47,959
04/08/99,02:00:01,5,102,-26,51,959
04/08/99,02:05:01,5,102,-26,49,959
04/08/99,02:10:01,5,102,-26,59,959
04/08/99,02:15:01,5,102,-26,65,959
04/08/99,02:20:01,5,102,-26,59,959
04/08/99,02:25:01,5,102,-26,74,959
04/08/99,02:30:01,5,92,-24,77,959
04/08/99,02:35:01,5,68,-24,69,959
04/08/99,02:40:01,5,68,-24,66,959
04/08/99,02:45:01,5,38,-24,74,959
04/08/99,02:50:01,6,27,-24,67,959
04/08/99,02:55:01,6,27,-24,59,959
04/08/99,03:00:01,28,4,-24,55,959
04/08/99,03:05:01,28,4,-24,44,959
04/08/99,03:10:01,18,4,-24,48,959
04/08/99,03:15:01,28,4,-24,53,959
04/08/99,03:20:01,49,359,-24,55,959
04/08/99,03:25:01,49,359,-24,53,959
04/08/99,03:30:01,38,359,-24,53,959
04/08/99,03:35:01,38,348,-24,49,959
04/08/99,03:40:01,37,348,-24,47,959
04/08/99,03:45:01,47,348,-24,47,959
04/08/99,03:50:01,27,348,-24,47,959
04/08/99,03:55:01,27,348,-24,45,959
04/08/99,04:00:01,27,348,-24,43,959
04/08/99,04:05:01,27,348,-24,35,959
04/08/99,04:10:01,21,348,-24,27,959
04/08/99,04:15:01,31,348,-24,27,959
04/08/99,04:20:01,43,348,-24,23,959
04/08/99,04:25:01,22,348,-24,15,959
04/08/99,04:30:01,17,348,-26,13,959
04/08/99,04:35:01,28,348,-26,13,959
04/08/99,04:40:01,18,337,-26,11,959
04/08/99,04:45:01,5,327,-26,9,959
04/08/99,04:50:01,29,353,-26,9,959
04/08/99,04:55:01,33,1,-26,9,959
04/08/99,05:00:01,23,1,-26,7,959
04/08/99,05:05:01,28,1,-28,5,959
04/08/99,05:10:01,39,15,-28,5,959
04/08/99,05:15:01,30,14,-28,5,959
04/08/99,05:20:01,19,25,-28,3,959
04/08/99,05:25:01,22,9,-28,3,959
04/08/99,05:30:01,34,19,-28,3,959
04/08/99,05:35:01,34,19,-28,1,961
04/08/99,05:40:01,47,19,-28,1,961
04/08/99,05:45:01,57,19,-28,1,961
04/08/99,05:50:01,47,18,-28,1,961
04/08/99,05:55:01,29,12,-28,1,961
04/08/99,06:00:01,41,12,-28,1,961
04/08/99,06:05:01,38,19,-28,1,961
04/08/99,06:10:01,27,19,-28,1,961
04/08/99,06:15:01,35,19,-28,1,961
04/08/99,06:20:01,46,19,-28,1,961
04/08/99,06:25:01,33,18,-28,1,961
04/08/99,06:30:01,36,18,-28,1,961
04/08/99,06:35:01,21,18,-28,1,961
04/08/99,06:40:01,19,18,-28,1,961
04/08/99,06:45:01,11,8,-28,1,961
04/08/99,06:50:01,9,8,-28,1,961
04/08/99,06:55:01,21,8,-28,1,961
04/08/99,07:00:01,1,8,-28,1,961
04/08/99,07:05:01,0,8,-28,1,961
04/08/99,07:10:01,0,8,-28,1,961
04/08/99,07:15:01,0,8,-28,1,961
04/08/99,07:20:01,0,8,-28,1,961
04/08/99,07:25:01,20,8,-28,1,961
04/08/99,07:30:01,35,23,-28,1,961
04/08/99,07:35:01,34,23,-28,1,961
04/08/99,07:40:01,32,23,-28,1,961
04/08/99,07:45:01,20,23,-28,1,961
04/08/99,07:50:01,4,26,-28,1,961
04/08/99,07:55:01,26,26,-28,1,961
04/08/99,08:00:01,2,16,-28,1,961
04/08/99,08:05:01,2,16,-28,1,961
04/08/99,08:10:01,18,26,-28,1,961
04/08/99,08:15:01,6,40,-28,1,961
04/08/99,08:20:01,6,51,-28,1,961
04/08/99,08:25:01,6,61,-28,1,961
04/08/99,08:30:01,6,61,-28,1,961
04/08/99,08:35:01,6,61,-28,1,961
04/08/99,08:40:01,6,103,-28,1,961
04/08/99,08:45:01,6,150,-28,1,961
04/08/99,08:50:01,16,150,-28,1,961
04/08/99,08:55:01,16,150,-28,1,961
04/08/99,09:00:01,16,162,-28,1,961
04/08/99,09:05:01,16,162,-28,1,961
04/08/99,09:10:01,16,162,-28,1,961
04/08/99,09:15:01,5,162,-28,1,961
04/08/99,09:20:01,16,162,-28,1,961
04/08/99,09:25:01,6,162,-28,1,961
04/08/99,09:30:01,17,162,-28,1,961
04/08/99,09:35:01,17,162,-28,1,961
04/08/99,09:40:01,27,162,-28,1,961
04/08/99,09:45:01,27,162,-28,1,961
04/08/99,09:50:01,27,162,-28,1,961
04/08/99,09:55:01,17,162,-28,1,961
04/08/99,10:00:01,19,162,-28,1,961
04/08/99,10:05:01,28,172,-28,1,961
04/08/99,10:10:01,18,172,-28,1,961
04/08/99,10:15:01,18,172,-28,1,961
04/08/99,10:20:01,18,172,-28,1,961
04/08/99,10:25:01,18,172,-28,1,961
04/08/99,10:30:01,18,172,-28,1,961
04/08/99,10:35:01,18,172,-28,1,961
04/08/99,10:40:01,7,172,-28,1,961
04/08/99,10:45:01,7,172,-28,1,961
04/08/99,10:50:01,7,172,-28,1,961
04/08/99,10:55:01,7,172,-28,1,961
04/08/99,11:00:01,7,172,-28,1,961
04/08/99,11:05:01,7,288,-28,1,961
04/08/99,11:10:01,7,332,-28,1,961
04/08/99,11:15:01,17,352,-28,1,961
04/08/99,11:20:01,5,352,-28,1,961
04/08/99,11:25:01,19,352,-28,1,961
04/08/99,11:30:01,19,1,-28,1,961
04/08/99,11:35:01,10,350,-28,1,961
04/08/99,11:40:01,45,12,-28,1,961
04/08/99,11:45:01,73,15,-28,1,961
04/08/99,11:50:01,21,15,-28,1,961
04/08/99,11:55:01,62,15,-28,1,961
04/08/99,12:00:01,57,15,-28,1,961
04/08/99,12:05:01,62,15,-28,1,961
04/08/99,12:10:01,61,25,-28,1,961
04/08/99,12:15:01,76,25,-28,1,961
04/08/99,12:20:01,54,13,-28,1,961
04/08/99,12:25:01,66,5,-28,1,961
04/08/99,12:30:01,55,24,-28,1,963
04/08/99,12:35:01,55,14,-28,1,963
04/08/99,12:40:01,42,17,-28,1,963
04/08/99,12:45:01,40,18,-28,1,963
04/08/99,12:50:01,26,32,-28,1,963
04/08/99,12:55:01,38,22,-28,1,963
04/08/99,13:00:01,23,22,-28,1,963
04/08/99,13:05:01,11,29,-28,1,963
04/08/99,13:10:01,22,353,-28,1,963
04/08/99,13:15:01,41,23,-28,1,963
04/08/99,13:20:01,19,4,-28,1,963
04/08/99,13:25:01,0,51,-28,1,963
04/08/99,13:30:01,0,45,-28,1,963
04/08/99,13:35:01,9,30,-28,1,963
04/08/99,13:40:01,12,139,-28,1,963
04/08/99,13:45:01,30,141,-28,1,963
04/08/99,13:50:01,2,24,-28,1,963
04/08/99,13:55:01,2,137,-28,1,963
04/08/99,14:00:01,1,292,-28,1,963
04/08/99,14:05:01,0,326,-28,1,963
04/08/99,14:10:01,0,239,-28,1,963
04/08/99,14:15:01,0,306,-28,1,963
04/08/99,14:20:01,0,288,-28,1,963
04/08/99,14:25:01,0,242,-28,1,963
04/08/99,14:30:01,17,214,-28,1,963
04/08/99,14:35:01,28,179,-28,1,963
04/08/99,14:40:01,17,179,-28,1,963
04/08/99,14:45:01,7,169,-28,1,963
04/08/99,14:50:01,7,180,-28,1,963
04/08/99,14:55:01,35,200,-28,1,963
04/08/99,15:00:01,38,206,-28,1,963
04/08/99,15:05:01,42,223,-28,1,963
04/08/99,15:10:01,32,225,-28,1,963
04/08/99,15:15:01,32,215,-28,1,963
04/08/99,15:20:01,45,215,-28,1,963
04/08/99,15:25:01,20,226,-28,1,963
04/08/99,15:30:01,21,226,-28,1,963
04/08/99,15:35:01,29,226,-28,1,963
04/08/99,15:40:01,23,226,-28,1,963
04/08/99,15:45:01,22,212,-28,1,963
04/08/99,15:50:01,23,212,-28,1,963
04/08/99,15:55:01,41,193,-28,1,963
04/08/99,16:00:01,53,197,-28,1,963
04/08/99,16:05:01,52,197,-28,1,963
04/08/99,16:10:01,58,186,-28,1,963
04/08/99,16:15:01,55,188,-28,1,963
04/08/99,16:20:01,39,192,-28,1,963
04/08/99,16:25:01,21,195,-28,1,963
04/08/99,16:30:01,4,220,-28,1,963
04/08/99,16:35:01,21,246,-28,1,963
04/08/99,16:40:01,26,216,-28,1,963
04/08/99,16:45:01,14,216,-28,1,963
04/08/99,16:50:01,34,206,-28,1,963
04/08/99,16:55:01,34,206,-28,1,963
04/08/99,17:00:01,24,210,-28,1,963
04/08/99,17:05:01,22,197,-28,1,963
04/08/99,17:10:01,10,207,-28,1,963
04/08/99,17:15:01,16,218,-28,1,963
04/08/99,17:20:01,16,218,-28,1,963
04/08/99,17:25:01,3,203,-28,1,963
04/08/99,17:30:01,6,203,-28,1,963
04/08/99,17:35:01,6,203,-28,1,963
04/08/99,17:40:01,5,181,-28,1,963
04/08/99,17:45:01,5,181,-28,1,963
04/08/99,17:50:01,5,181,-28,1,963
04/08/99,17:55:01,5,181,-28,1,963
04/08/99,18:00:01,5,181,-28,1,963
04/08/99,18:05:01,5,192,-28,1,963
04/08/99,18:10:01,5,192,-28,1,963
04/08/99,18:15:01,5,163,-28,1,963
04/08/99,18:20:01,5,76,-28,1,963
04/08/99,18:25:01,5,55,-28,1,963
04/08/99,18:30:01,29,23,-28,1,963
04/08/99,18:35:01,29,360,-28,1,963
04/08/99,18:40:01,29,360,-28,1,963
04/08/99,18:45:01,19,349,-28,1,963
04/08/99,18:50:01,19,349,-28,1,963
04/08/99,18:55:01,19,349,-28,1,963
04/08/99,19:00:01,29,349,-28,1,963
04/08/99,19:05:01,29,349,-28,1,963
04/08/99,19:10:01,29,349,-28,1,963
04/08/99,19:15:01,39,1,-28,1,963
04/08/99,19:20:01,39,1,-28,1,963
04/08/99,19:25:01,39,1,-26,1,963
04/08/99,19:30:01,50,2,-26,1,963
04/08/99,19:35:01,50,2,-26,1,963
04/08/99,19:40:01,70,2,-26,1,963
04/08/99,19:45:01,60,2,-26,1,963
04/08/99,19:50:01,56,13,-28,1,963
04/08/99,19:55:01,62,13,-28,1,963
04/08/99,20:00:01,62,13,-28,1,965
04/08/99,20:05:01,49,13,-28,1,965
04/08/99,20:10:01,49,13,-28,1,965
04/08/99,20:15:01,49,2,-28,1,965
04/08/99,20:20:01,38,359,-28,1,965
04/08/99,20:25:01,48,1,-28,1,965
04/08/99,20:30:01,48,1,-28,1,965
04/08/99,20:35:01,48,1,-28,1,965
04/08/99,20:40:01,58,360,-28,1,965
04/08/99,20:45:01,47,360,-28,1,965
04/08/99,20:50:01,66,1,-28,3,965
04/08/99,20:55:01,54,360,-28,3,965
04/08/99,21:00:01,44,360,-28,5,965
04/08/99,21:05:01,31,360,-28,7,965
04/08/99,21:10:01,33,360,-28,7,965
04/08/99,21:15:01,33,337,-28,7,965
04/08/99,21:20:01,33,326,-28,7,965
04/08/99,21:25:01,21,326,-28,7,965
04/08/99,21:30:01,32,326,-28,7,965
04/08/99,21:35:01,33,326,-28,9,965
04/08/99,21:40:01,43,315,-28,9,965
04/08/99,21:45:01,42,315,-28,11,965
04/08/99,21:50:01,31,315,-28,11,965
04/08/99,21:55:01,41,323,-28,13,965
04/08/99,22:00:01,41,311,-28,15,965
04/08/99,22:05:01,41,301,-28,17,965
04/08/99,22:10:01,41,314,-28,17,965
04/08/99,22:15:01,43,286,-28,19,965
04/08/99,22:20:01,43,274,-28,19,965
04/08/99,22:25:01,33,274,-28,19,965
04/08/99,22:30:01,5,284,-28,19,965
04/08/99,22:35:01,30,257,-28,19,965
04/08/99,22:40:01,29,257,-28,19,965
04/08/99,22:45:01,29,246,-28,19,965
04/08/99,22:50:01,18,246,-28,19,965
04/08/99,22:55:01,18,246,-28,19,965
04/08/99,23:00:01,18,256,-28,19,965
04/08/99,23:05:01,18,256,-28,19,965
04/08/99,23:10:01,18,256,-28,21,965
04/08/99,23:15:01,18,244,-28,21,965
04/08/99,23:20:01,28,233,-28,25,965
04/08/99,23:25:01,28,233,-28,27,965
04/08/99,23:30:01,28,233,-28,27,965
04/08/99,23:35:01,28,233,-28,23,965
04/08/99,23:40:01,28,223,-28,23,965
04/08/99,23:45:01,28,223,-28,23,965
04/08/99,23:50:01,28,213,-28,23,965
04/08/99,23:55:01,28,213,-28,23,965
04/09/99,00:00:01,18,213,-28,23,965
